contact:dominique.lefevre@mio.osupytheas.fr, maurice.libes@osupytheas.fr, didier.mallarino@osupytheas.fr
Project:EMSO http://www.emso-fr.org/EMSO-France
Depth: 2436.0 m
Title:EMSO Ligure Ouest : Data MII capteur AQUADOPP
Date,Latitude,Longitude,X_East,Y_North,Z_Up,Amplitude_X,Amplitude_Y,Amplitude_Z,Batterie,SoundSpeed,Heading,Pitch,Roll,Pressure,TIS,Speed,Direction
, degrees North, degrees East, m.s-1, m.s-1,m.s-1, 1, 1, 1, Volt, m.s-1, degree, degree, degree, dbar, degree_C, m.s-1, degree
2023-05-11T00:04:03,42.805,6.029,0.036,0.038,-0.001,101.0,102.0,101.0,13.3,1505.2,317.6,-0.8,1.8,2471.476,13.28,0.052,43.5
2023-05-11T00:07:03,42.805,6.029,0.06,0.009,-0.003,101.0,103.0,101.0,13.4,1505.2,325.4,-0.8,1.8,2471.476,13.28,0.06,81.5
2023-05-11T00:10:03,42.805,6.029,0.011,-0.003,-0.058,100.0,103.0,101.0,13.4,1505.2,319.3,-0.8,1.8,2471.452,13.28,0.011,105.3
2023-05-11T00:13:03,42.805,6.029,0.05,-0.002,-0.05,103.0,102.0,101.0,13.3,1505.2,334.8,-0.8,1.8,2471.442,13.28,0.05,92.3
2023-05-11T00:16:03,42.805,6.029,0.056,0.005,-0.029,104.0,101.0,101.0,13.4,1505.2,331.9,-0.8,1.8,2471.441,13.29,0.056,84.9
2023-05-11T00:19:03,42.805,6.029,0.05,0.03,-0.004,101.0,105.0,101.0,13.3,1505.2,330.3,-0.7,1.8,2471.474,13.29,0.058,59.0
2023-05-11T00:22:03,42.805,6.029,0.049,-0.012,-0.005,102.0,103.0,100.0,13.4,1505.2,343.3,-0.8,1.8,2471.42,13.29,0.05,103.8
2023-05-11T00:25:03,42.805,6.029,0.057,0.01,-0.007,101.0,103.0,101.0,13.3,1505.2,338.2,-0.8,1.8,2471.44,13.29,0.057,80.1
2023-05-11T00:28:03,42.805,6.029,0.029,0.029,-0.018,100.0,104.0,101.0,13.4,1505.2,322.7,-0.8,1.8,2471.458,13.29,0.041,45.0
2023-05-11T00:31:03,42.805,6.029,0.021,0.014,-0.001,101.0,101.0,101.0,13.4,1505.2,322.9,-0.8,1.9,2471.407,13.29,0.025,56.3
2023-05-11T00:34:03,42.805,6.029,0.042,0.016,0.021,102.0,103.0,101.0,13.4,1505.2,329.5,-0.8,1.8,2471.481,13.29,0.044,69.1
2023-05-11T00:37:03,42.805,6.029,0.042,-0.013,-0.035,100.0,104.0,101.0,13.3,1505.2,344.9,-0.8,1.8,2471.459,13.29,0.043,107.2
2023-05-11T00:40:03,42.805,6.029,0.044,0.02,-0.021,102.0,103.0,102.0,13.4,1505.2,317.6,-0.8,1.8,2471.433,13.29,0.048,65.6
2023-05-11T00:43:03,42.805,6.029,0.02,0.004,-0.026,102.0,102.0,101.0,13.4,1505.2,344.0,-0.8,1.8,2471.434,13.29,0.02,78.7
2023-05-11T00:46:03,42.805,6.029,0.041,0.009,-0.003,103.0,102.0,101.0,13.4,1505.2,330.8,-0.8,1.8,2471.403,13.29,0.041,77.6
2023-05-11T00:49:03,42.805,6.029,0.049,-0.001,0.031,102.0,103.0,101.0,13.3,1505.2,343.4,-0.8,1.8,2471.469,13.29,0.049,91.2
2023-05-11T00:52:03,42.805,6.029,0.001,0.012,-0.036,104.0,102.0,100.0,13.4,1505.2,317.4,-0.8,1.8,2471.419,13.29,0.012,4.8
2023-05-11T00:55:03,42.805,6.029,0.032,0.011,-0.055,103.0,103.0,100.0,13.4,1505.2,328.2,-0.8,1.8,2471.395,13.29,0.033,71.0
2023-05-11T00:58:03,42.805,6.029,0.038,0.014,0.015,101.0,101.0,101.0,13.3,1505.2,342.5,-0.8,1.8,2471.432,13.29,0.04,69.8
2023-05-11T01:04:03,42.805,6.029,0.035,-0.007,-0.006,103.0,104.0,103.0,13.4,1505.2,345.4,-0.7,1.8,2471.493,13.28,0.035,101.3
2023-05-11T01:07:03,42.805,6.029,0.033,0.028,-0.01,102.0,103.0,100.0,13.3,1505.2,323.1,-0.8,1.8,2471.468,13.28,0.043,49.7
2023-05-11T01:10:03,42.805,6.029,0.03,-0.006,-0.005,101.0,102.0,101.0,13.3,1505.2,343.7,-0.8,1.8,2471.464,13.28,0.03,101.3
2023-05-11T01:13:03,42.805,6.029,0.017,0.025,-0.036,101.0,103.0,101.0,13.4,1505.2,334.4,-0.8,1.8,2471.467,13.28,0.03,34.2
2023-05-11T01:16:03,42.805,6.029,0.043,-0.015,-0.04,103.0,101.0,100.0,13.3,1505.2,343.6,-0.8,1.8,2471.459,13.29,0.045,109.2
2023-05-11T01:19:03,42.805,6.029,0.039,0.017,-0.001,103.0,101.0,101.0,13.4,1505.2,328.8,-0.8,1.8,2471.419,13.29,0.042,66.5
2023-05-11T01:22:03,42.805,6.029,0.046,-0.024,-0.024,101.0,102.0,101.0,13.4,1505.2,334.6,-0.8,1.8,2471.421,13.29,0.051,117.6
2023-05-11T01:25:03,42.805,6.029,0.026,0.002,0.003,102.0,103.0,100.0,13.4,1505.2,338.5,-0.8,1.8,2471.409,13.29,0.026,85.6
2023-05-11T01:28:03,42.805,6.029,0.045,0.001,0.005,101.0,102.0,101.0,13.4,1505.2,333.4,-0.8,1.8,2471.418,13.29,0.045,88.7
2023-05-11T01:31:03,42.805,6.029,0.065,-0.009,-0.041,102.0,102.0,101.0,13.3,1505.2,328.0,-0.8,1.8,2471.421,13.29,0.065,97.9
2023-05-11T01:34:03,42.805,6.029,0.033,-0.015,-0.059,102.0,103.0,100.0,13.4,1505.2,333.4,-0.8,1.8,2471.439,13.29,0.036,114.4
2023-05-11T01:37:03,42.805,6.029,0.046,0.006,0.005,101.0,102.0,100.0,13.3,1505.2,328.8,-0.7,1.8,2471.436,13.29,0.046,82.6
2023-05-11T01:40:03,42.805,6.029,0.058,-0.014,-0.007,101.0,104.0,100.0,13.3,1505.2,338.9,-0.8,1.8,2471.434,13.29,0.059,103.6
2023-05-11T01:43:03,42.805,6.029,0.008,0.023,-0.03,101.0,102.0,100.0,13.4,1505.2,326.6,-0.8,1.8,2471.433,13.29,0.024,19.2
2023-05-11T01:46:03,42.805,6.029,0.033,-0.01,-0.013,102.0,101.0,100.0,13.3,1505.2,339.3,-0.8,1.8,2471.407,13.29,0.034,106.9
2023-05-11T01:49:03,42.805,6.029,0.017,0.027,-0.027,101.0,101.0,102.0,13.4,1505.2,321.0,-0.8,1.8,2471.377,13.29,0.031,32.2
2023-05-11T01:52:03,42.805,6.029,0.032,0.01,-0.028,102.0,102.0,101.0,13.4,1505.2,342.3,-0.7,1.8,2471.407,13.29,0.033,72.6
2023-05-11T01:55:03,42.805,6.029,0.016,0.013,-0.024,101.0,100.0,101.0,13.4,1505.2,326.0,-0.8,1.8,2471.398,13.29,0.02,50.9
2023-05-11T01:58:03,42.805,6.029,0.051,-0.015,-0.03,102.0,101.0,101.0,13.3,1505.2,332.6,-0.8,1.8,2471.406,13.29,0.053,106.4
2023-05-11T02:04:03,42.805,6.029,0.028,0.001,-0.038,101.0,102.0,101.0,13.4,1505.2,336.8,-0.8,1.8,2471.453,13.28,0.028,88.0
2023-05-11T02:07:03,42.805,6.029,0.043,0.0,-0.02,104.0,101.0,101.0,13.3,1505.2,326.5,-0.8,1.8,2471.405,13.28,0.043,90.0
2023-05-11T02:10:03,42.805,6.029,0.008,-0.003,-0.048,101.0,100.0,102.0,13.4,1505.2,338.2,-0.8,1.8,2471.425,13.28,0.008,110.6
2023-05-11T02:13:03,42.805,6.029,0.04,-0.004,-0.001,100.0,102.0,101.0,13.3,1505.2,337.6,-0.8,1.8,2471.435,13.29,0.04,95.7
2023-05-11T02:16:03,42.805,6.029,0.03,0.017,-0.006,101.0,103.0,102.0,13.4,1505.2,330.5,-0.7,1.8,2471.362,13.29,0.034,60.5
2023-05-11T02:19:03,42.805,6.029,0.028,0.017,0.0,101.0,102.0,102.0,13.4,1505.2,341.9,-0.8,1.8,2471.401,13.29,0.032,58.7
2023-05-11T02:22:03,42.805,6.029,0.022,0.006,-0.012,102.0,102.0,101.0,13.3,1505.2,331.8,-0.8,1.8,2471.397,13.29,0.022,74.7
2023-05-11T02:25:03,42.805,6.029,0.03,-0.023,-0.04,102.0,103.0,101.0,13.3,1505.2,341.9,-0.7,1.8,2471.353,13.29,0.037,127.5
2023-05-11T02:28:03,42.805,6.029,0.041,-0.01,-0.031,101.0,102.0,100.0,13.3,1505.2,327.8,-0.8,1.8,2471.389,13.29,0.042,103.7
2023-05-11T02:31:03,42.805,6.029,0.053,-0.015,-0.028,102.0,104.0,101.0,13.4,1505.2,342.2,-0.8,1.8,2471.353,13.29,0.055,105.8
2023-05-11T02:34:03,42.805,6.029,0.03,0.014,-0.005,102.0,102.0,101.0,13.4,1505.2,325.3,-0.8,1.8,2471.413,13.29,0.033,65.0
2023-05-11T02:37:03,42.805,6.029,0.026,0.002,-0.035,100.0,102.0,101.0,13.4,1505.2,316.9,-0.7,1.8,2471.403,13.29,0.026,85.6
2023-05-11T02:40:03,42.805,6.029,0.021,0.007,-0.014,101.0,102.0,101.0,13.4,1505.2,328.8,-0.8,1.8,2471.377,13.29,0.022,71.6
2023-05-11T02:43:03,42.805,6.029,0.037,0.01,0.018,101.0,103.0,101.0,13.4,1505.2,337.5,-0.8,1.8,2471.415,13.29,0.038,74.9
2023-05-11T02:46:03,42.805,6.029,0.035,0.007,0.006,102.0,100.0,101.0,13.4,1505.2,323.1,-0.7,1.8,2471.355,13.29,0.035,78.7
2023-05-11T02:49:03,42.805,6.029,0.028,0.006,-0.018,102.0,101.0,101.0,13.4,1505.2,334.2,-0.8,1.8,2471.359,13.29,0.028,77.9
2023-05-11T02:52:03,42.805,6.029,0.047,-0.016,-0.045,102.0,102.0,100.0,13.4,1505.2,333.9,-0.8,1.8,2471.353,13.29,0.049,108.8
2023-05-11T02:55:03,42.805,6.029,0.037,-0.011,-0.034,102.0,102.0,101.0,13.4,1505.2,322.4,-0.7,1.8,2471.394,13.29,0.038,106.6
2023-05-11T02:58:03,42.805,6.029,0.041,-0.007,-0.039,102.0,101.0,101.0,13.4,1505.2,333.8,-0.8,1.8,2471.378,13.29,0.041,99.7
2023-05-11T03:04:03,42.805,6.029,0.026,0.0,-0.033,101.0,103.0,101.0,13.4,1505.2,324.4,-0.8,1.8,2471.422,13.28,0.026,90.0
2023-05-11T03:07:03,42.805,6.029,0.049,-0.008,-0.002,102.0,102.0,101.0,13.4,1505.2,341.2,-0.8,1.8,2471.422,13.28,0.049,99.3
2023-05-11T03:10:03,42.805,6.029,0.039,0.007,-0.036,102.0,101.0,100.0,13.3,1505.2,327.7,-0.8,1.8,2471.396,13.28,0.039,79.8
2023-05-11T03:13:03,42.805,6.029,0.033,-0.001,-0.017,103.0,102.0,100.0,13.4,1505.2,343.6,-0.8,1.8,2471.376,13.28,0.033,91.7
2023-05-11T03:16:03,42.805,6.029,0.022,0.022,-0.007,102.0,101.0,101.0,13.4,1505.2,329.5,-0.8,1.8,2471.421,13.29,0.031,45.0
2023-05-11T03:19:03,42.805,6.029,0.037,0.012,-0.014,102.0,103.0,101.0,13.3,1505.2,335.4,-0.8,1.9,2471.399,13.29,0.038,72.0
2023-05-11T03:22:03,42.805,6.029,0.023,0.016,-0.019,102.0,101.0,101.0,13.4,1505.2,333.9,-0.8,1.8,2471.377,13.29,0.028,55.2
2023-05-11T03:25:03,42.805,6.029,0.029,-0.009,-0.05,102.0,102.0,101.0,13.3,1505.2,318.7,-0.8,1.8,2471.389,13.29,0.03,107.2
2023-05-11T03:28:03,42.805,6.029,0.046,0.007,-0.011,101.0,102.0,102.0,13.4,1505.2,333.9,-0.8,1.8,2471.392,13.29,0.046,81.3
2023-05-11T03:31:03,42.805,6.029,0.055,0.0,-0.007,103.0,102.0,100.0,13.3,1505.2,331.8,-0.7,1.8,2471.363,13.29,0.055,90.0
2023-05-11T03:34:03,42.805,6.029,0.009,0.002,-0.007,101.0,103.0,100.0,13.4,1505.2,340.6,-0.7,1.8,2471.346,13.29,0.009,77.5
2023-05-11T03:37:03,42.805,6.029,0.046,0.002,-0.032,101.0,102.0,101.0,13.4,1505.2,330.4,-0.8,1.8,2471.324,13.29,0.046,87.5
2023-05-11T03:40:03,42.805,6.029,0.032,0.013,-0.007,102.0,101.0,101.0,13.3,1505.2,332.9,-0.7,1.8,2471.38,13.29,0.034,67.9
2023-05-11T03:43:03,42.805,6.029,0.027,0.005,-0.018,102.0,103.0,101.0,13.4,1505.2,320.4,-0.8,1.9,2471.374,13.29,0.027,79.5
2023-05-11T03:46:03,42.805,6.029,-0.001,0.0,-0.062,101.0,102.0,101.0,13.4,1505.2,341.2,-0.8,1.8,2471.384,13.29,0.001,270.0
2023-05-11T03:49:03,42.805,6.029,0.027,0.006,-0.019,101.0,102.0,101.0,13.4,1505.2,336.9,-0.8,1.8,2471.342,13.29,0.027,77.5
2023-05-11T03:52:03,42.805,6.029,0.006,0.022,-0.031,101.0,101.0,102.0,13.4,1505.2,320.5,-0.8,1.8,2471.362,13.29,0.022,15.3
2023-05-11T03:55:03,42.805,6.029,0.038,0.004,-0.034,102.0,101.0,101.0,13.4,1505.2,324.6,-0.7,1.8,2471.331,13.29,0.038,84.0
2023-05-11T03:58:03,42.805,6.029,0.035,0.011,-0.009,101.0,102.0,101.0,13.3,1505.2,335.6,-0.8,1.8,2471.386,13.29,0.036,72.6
2023-05-11T04:04:03,42.805,6.029,0.011,-0.004,-0.036,102.0,101.0,101.0,13.4,1505.2,327.9,-0.8,1.8,2471.382,13.28,0.011,110.0
2023-05-11T04:07:03,42.805,6.029,0.036,0.018,-0.003,100.0,102.0,102.0,13.4,1505.2,323.1,-0.7,1.8,2471.38,13.28,0.04,63.4
2023-05-11T04:10:03,42.805,6.029,0.041,0.007,-0.021,102.0,102.0,100.0,13.4,1505.2,319.8,-0.7,1.8,2471.353,13.28,0.041,80.3
2023-05-11T04:13:03,42.805,6.029,0.018,-0.002,-0.008,102.0,102.0,101.0,13.3,1505.2,325.0,-0.8,1.8,2471.384,13.29,0.018,96.3
2023-05-11T04:16:03,42.805,6.029,0.028,0.012,0.017,102.0,103.0,101.0,13.4,1505.2,343.7,-0.8,1.8,2471.347,13.29,0.03,66.8
2023-05-11T04:19:03,42.805,6.029,0.024,0.012,-0.024,103.0,102.0,100.0,13.4,1505.2,332.4,-0.8,1.8,2471.341,13.29,0.026,63.4
2023-05-11T04:22:03,42.805,6.029,0.021,0.035,0.017,101.0,102.0,102.0,13.4,1505.2,336.3,-0.8,1.8,2471.37,13.29,0.04,31.0
2023-05-11T04:25:03,42.805,6.029,0.03,0.015,-0.012,102.0,102.0,100.0,13.4,1505.2,335.4,-0.8,1.8,2471.368,13.29,0.033,63.4
2023-05-11T04:28:03,42.805,6.029,0.049,-0.012,-0.015,102.0,101.0,101.0,13.3,1505.2,337.4,-0.7,1.9,2471.313,13.29,0.05,103.8
2023-05-11T04:31:03,42.805,6.029,0.043,-0.01,-0.031,101.0,101.0,101.0,13.3,1505.2,330.3,-0.7,1.8,2471.329,13.29,0.044,103.1
2023-05-11T04:34:03,42.805,6.029,0.031,0.013,-0.016,102.0,102.0,102.0,13.4,1505.2,338.9,-0.8,1.8,2471.325,13.29,0.033,67.3
2023-05-11T04:37:03,42.805,6.029,0.019,0.008,-0.066,102.0,101.0,101.0,13.4,1505.2,325.7,-0.7,1.8,2471.304,13.29,0.02,67.2
2023-05-11T04:40:03,42.805,6.029,0.044,0.012,0.009,102.0,101.0,101.0,13.4,1505.2,327.3,-0.8,1.8,2471.338,13.29,0.045,74.7
2023-05-11T04:43:03,42.805,6.029,0.026,0.031,-0.027,102.0,101.0,101.0,13.4,1505.2,323.6,-0.8,1.8,2471.33,13.29,0.04,40.0
2023-05-11T04:46:03,42.805,6.029,0.017,0.0,-0.019,102.0,102.0,100.0,13.4,1505.2,329.4,-0.8,1.8,2471.32,13.29,0.017,90.0
2023-05-11T04:49:03,42.805,6.029,0.046,-0.004,-0.01,102.0,101.0,100.0,13.3,1505.2,338.6,-0.8,1.8,2471.312,13.29,0.046,95.0
2023-05-11T04:52:03,42.805,6.029,0.021,0.028,0.003,102.0,102.0,101.0,13.3,1505.2,321.2,-0.8,1.8,2471.301,13.29,0.035,36.9
2023-05-11T04:55:03,42.805,6.029,0.045,-0.003,-0.028,101.0,102.0,101.0,13.4,1505.2,331.3,-0.8,1.8,2471.307,13.29,0.045,93.8
2023-05-11T04:58:03,42.805,6.029,0.031,0.002,-0.026,102.0,101.0,101.0,13.4,1505.2,316.9,-0.8,1.8,2471.308,13.29,0.031,86.3
2023-05-11T05:04:03,42.805,6.029,0.012,0.025,0.004,102.0,101.0,102.0,13.3,1505.2,327.0,-0.8,1.8,2471.374,13.28,0.027,25.6
2023-05-11T05:07:03,42.805,6.029,0.018,0.007,-0.055,103.0,102.0,101.0,13.4,1505.2,331.6,-0.8,1.8,2471.348,13.28,0.019,68.8
2023-05-11T05:10:03,42.805,6.029,0.035,0.008,-0.013,101.0,101.0,100.0,13.3,1505.2,340.2,-0.8,1.8,2471.343,13.28,0.035,77.1
2023-05-11T05:13:03,42.805,6.029,0.039,-0.015,-0.047,101.0,101.0,102.0,13.3,1505.2,335.8,-0.8,1.8,2471.331,13.29,0.041,111.0
2023-05-11T05:16:03,42.805,6.029,0.007,0.013,-0.046,100.0,103.0,102.0,13.4,1505.2,342.8,-0.7,1.8,2471.328,13.29,0.014,28.3
2023-05-11T05:19:03,42.805,6.029,0.044,0.028,-0.01,101.0,101.0,101.0,13.4,1505.2,331.2,-0.8,1.8,2471.314,13.29,0.052,57.5
2023-05-11T05:22:03,42.805,6.029,0.044,-0.012,-0.032,102.0,101.0,100.0,13.4,1505.2,342.6,-0.8,1.8,2471.3,13.29,0.045,105.3
2023-05-11T05:25:03,42.805,6.029,0.015,0.037,0.011,101.0,102.0,100.0,13.4,1505.2,320.1,-0.7,1.8,2471.317,13.29,0.039,22.1
2023-05-11T05:28:03,42.805,6.029,0.034,0.002,-0.024,102.0,100.0,102.0,13.4,1505.2,338.4,-0.7,1.8,2471.291,13.29,0.034,86.6
2023-05-11T05:31:03,42.805,6.029,0.022,0.013,-0.018,100.0,100.0,102.0,13.3,1505.2,331.8,-0.8,1.8,2471.331,13.29,0.025,59.4
2023-05-11T05:34:03,42.805,6.029,-0.003,0.026,-0.012,101.0,102.0,100.0,13.3,1505.2,344.9,-0.8,1.8,2471.296,13.29,0.026,353.4
2023-05-11T05:37:03,42.805,6.029,0.018,0.009,-0.014,102.0,101.0,102.0,13.3,1505.2,323.1,-0.8,1.8,2471.311,13.29,0.02,63.4
2023-05-11T05:40:03,42.805,6.029,0.023,0.02,-0.014,101.0,102.0,100.0,13.3,1505.2,316.3,-0.8,1.8,2471.302,13.29,0.03,49.0
2023-05-11T05:43:03,42.805,6.029,0.041,0.015,-0.021,101.0,102.0,100.0,13.4,1505.2,329.5,-0.8,1.8,2471.267,13.29,0.043,69.9
2023-05-11T05:46:03,42.805,6.029,0.019,0.012,-0.028,101.0,102.0,101.0,13.4,1505.2,318.6,-0.8,1.8,2471.308,13.29,0.022,57.7
2023-05-11T05:49:03,42.805,6.029,0.018,0.009,-0.02,101.0,102.0,101.0,13.3,1505.2,333.9,-0.8,1.8,2471.312,13.29,0.02,63.4
2023-05-11T05:52:03,42.805,6.029,0.013,0.019,-0.018,102.0,103.0,101.0,13.3,1505.2,319.3,-0.8,1.8,2471.35,13.29,0.023,34.4
2023-05-11T05:55:03,42.805,6.029,0.027,0.001,-0.015,101.0,102.0,101.0,13.3,1505.2,323.7,-0.7,1.8,2471.274,13.29,0.027,87.9
2023-05-11T05:58:03,42.805,6.029,0.036,0.002,-0.042,102.0,102.0,100.0,13.3,1505.2,331.9,-0.8,1.8,2471.275,13.29,0.036,86.8
2023-05-11T06:04:03,42.805,6.029,0.025,0.018,0.007,101.0,101.0,101.0,13.3,1505.2,326.8,-0.8,1.8,2471.347,13.28,0.03,54.2
2023-05-11T06:07:03,42.805,6.029,0.024,-0.01,-0.024,100.0,103.0,101.0,13.3,1505.2,333.4,-0.8,1.8,2471.334,13.28,0.026,112.6
2023-05-11T06:10:03,42.805,6.029,-0.006,0.026,0.007,101.0,103.0,101.0,13.3,1505.2,323.5,-0.7,1.8,2471.301,13.28,0.026,347.0
2023-05-11T06:13:03,42.805,6.029,0.036,0.0,-0.031,101.0,101.0,101.0,13.3,1505.2,322.4,-0.8,1.8,2471.337,13.29,0.036,90.0
2023-05-11T06:16:03,42.805,6.029,0.021,0.01,0.001,100.0,101.0,101.0,13.4,1505.2,341.5,-0.8,1.8,2471.306,13.29,0.023,64.5
2023-05-11T06:19:03,42.805,6.029,0.021,0.019,-0.027,101.0,101.0,101.0,13.4,1505.2,324.1,-0.8,1.8,2471.307,13.29,0.028,47.9
2023-05-11T06:22:03,42.805,6.029,0.023,-0.009,-0.042,102.0,102.0,101.0,13.4,1505.2,345.1,-0.7,1.8,2471.268,13.29,0.024,111.4
2023-05-11T06:25:03,42.805,6.029,0.039,-0.009,-0.048,101.0,102.0,100.0,13.3,1505.2,331.8,-0.8,1.8,2471.329,13.29,0.04,103.0
2023-05-11T06:28:03,42.805,6.029,0.033,-0.009,-0.023,101.0,102.0,100.0,13.3,1505.2,335.6,-0.8,1.8,2471.261,13.29,0.034,105.3
2023-05-11T06:31:03,42.805,6.029,0.011,0.021,-0.02,102.0,101.0,100.0,13.4,1505.2,326.5,-0.8,1.8,2471.279,13.29,0.023,27.6
2023-05-11T06:34:03,42.805,6.029,0.04,-0.002,-0.057,101.0,101.0,101.0,13.3,1505.2,323.8,-0.8,1.8,2471.295,13.29,0.04,92.9
2023-05-11T06:37:03,42.805,6.029,0.04,0.011,-0.015,101.0,102.0,101.0,13.4,1505.2,326.5,-0.8,1.8,2471.279,13.29,0.041,74.6
2023-05-11T06:40:03,42.805,6.029,0.06,0.008,0.021,101.0,101.0,101.0,13.4,1505.2,324.6,-0.8,1.8,2471.278,13.29,0.06,82.4
2023-05-11T06:43:03,42.805,6.029,0.04,-0.005,-0.038,101.0,101.0,101.0,13.4,1505.2,331.2,-0.7,1.8,2471.288,13.29,0.04,97.1
2023-05-11T06:46:03,42.805,6.029,0.008,0.035,-0.017,102.0,102.0,100.0,13.4,1505.2,319.8,-0.7,1.8,2471.297,13.29,0.035,12.9
2023-05-11T06:49:03,42.805,6.029,0.021,0.0,-0.059,102.0,103.0,101.0,13.4,1505.2,325.7,-0.8,1.8,2471.282,13.29,0.021,90.0
2023-05-11T06:52:03,42.805,6.029,0.013,0.005,-0.044,101.0,102.0,101.0,13.4,1505.2,319.6,-0.8,1.8,2471.278,13.29,0.013,69.0
2023-05-11T06:55:03,42.805,6.029,0.03,0.016,-0.006,102.0,102.0,101.0,13.4,1505.2,327.6,-0.8,1.8,2471.282,13.29,0.034,61.9
2023-05-11T06:58:03,42.805,6.029,-0.004,0.032,-0.021,101.0,102.0,101.0,13.3,1505.2,322.1,-0.7,1.8,2471.287,13.29,0.032,352.9
2023-05-11T07:04:03,42.805,6.029,0.014,0.015,-0.005,101.0,102.0,102.0,13.4,1505.2,326.5,-0.7,1.8,2471.308,13.28,0.02,43.0
2023-05-11T07:07:03,42.805,6.029,0.022,0.005,-0.048,101.0,103.0,101.0,13.4,1505.2,335.4,-0.8,1.8,2471.312,13.28,0.022,77.2
2023-05-11T07:10:03,42.805,6.029,0.027,0.019,-0.016,101.0,101.0,100.0,13.3,1505.2,326.7,-0.8,1.8,2471.32,13.29,0.033,54.9
2023-05-11T07:13:03,42.805,6.029,0.03,0.02,0.001,101.0,102.0,100.0,13.4,1505.2,323.6,-0.7,1.8,2471.316,13.29,0.036,56.3
2023-05-11T07:16:03,42.805,6.029,0.019,0.016,-0.015,101.0,101.0,101.0,13.4,1505.2,338.0,-0.8,1.8,2471.295,13.29,0.024,49.9
2023-05-11T07:19:03,42.805,6.029,-0.005,0.024,-0.017,100.0,101.0,101.0,13.4,1505.2,316.2,-0.8,1.8,2471.307,13.29,0.024,348.2
2023-05-11T07:22:03,42.805,6.029,0.02,0.016,0.004,100.0,102.0,100.0,13.3,1505.2,326.3,-0.7,1.8,2471.259,13.29,0.025,51.3
2023-05-11T07:25:03,42.805,6.029,0.038,0.02,0.017,101.0,101.0,101.0,13.3,1505.2,320.5,-0.8,1.8,2471.277,13.29,0.042,62.2
2023-05-11T07:28:04,42.805,6.029,0.022,0.015,-0.009,100.0,103.0,100.0,13.4,1505.2,336.5,-0.7,1.8,2471.334,13.29,0.026,55.7
2023-05-11T07:31:03,42.805,6.029,0.014,-0.018,-0.029,101.0,102.0,100.0,13.4,1505.2,343.3,-0.8,1.8,2471.297,13.29,0.022,142.1
2023-05-11T07:34:03,42.805,6.029,0.002,0.02,-0.017,102.0,102.0,102.0,13.4,1505.2,315.6,-0.8,1.8,2471.286,13.29,0.02,5.7
2023-05-11T07:37:03,42.805,6.029,0.01,0.014,-0.034,101.0,102.0,100.0,13.4,1505.2,324.5,-0.7,1.8,2471.236,13.29,0.017,35.5
2023-05-11T07:40:03,42.805,6.029,0.009,0.01,-0.022,102.0,102.0,99.0,13.3,1505.2,324.1,-0.8,1.8,2471.294,13.29,0.013,42.0
2023-05-11T07:43:03,42.805,6.029,0.013,0.003,-0.025,102.0,102.0,101.0,13.4,1505.2,335.3,-0.8,1.8,2471.289,13.29,0.013,77.0
2023-05-11T07:46:03,42.805,6.029,0.002,0.02,-0.023,101.0,100.0,101.0,13.4,1505.2,333.4,-0.8,1.8,2471.284,13.29,0.02,5.7
2023-05-11T07:49:03,42.805,6.029,0.024,-0.014,-0.038,102.0,101.0,100.0,13.3,1505.2,342.9,-0.8,1.8,2471.304,13.29,0.027,120.3
2023-05-11T07:52:03,42.805,6.029,0.011,0.019,-0.019,102.0,102.0,100.0,13.4,1505.2,331.1,-0.7,1.8,2471.303,13.29,0.021,30.1
2023-05-11T07:55:03,42.805,6.029,0.032,0.0,-0.02,101.0,102.0,101.0,13.4,1505.2,327.9,-0.7,1.8,2471.275,13.29,0.032,90.0
2023-05-11T07:58:03,42.805,6.029,0.021,0.013,-0.019,102.0,102.0,100.0,13.4,1505.2,338.2,-0.8,1.8,2471.283,13.29,0.024,58.2
2023-05-11T08:04:03,42.805,6.029,0.025,0.005,-0.019,101.0,101.0,100.0,13.4,1505.2,337.2,-0.8,1.8,2471.36,13.28,0.025,78.7
2023-05-11T08:07:03,42.805,6.029,0.013,0.02,0.004,101.0,103.0,100.0,13.4,1505.2,345.7,-0.8,1.8,2471.333,13.29,0.023,33.0
2023-05-11T08:10:03,42.805,6.029,0.012,0.019,-0.008,101.0,103.0,100.0,13.3,1505.2,322.6,-0.8,1.8,2471.325,13.29,0.022,32.3
2023-05-11T08:13:03,42.805,6.029,0.031,0.003,-0.011,101.0,102.0,100.0,13.4,1505.2,337.2,-0.8,1.8,2471.324,13.29,0.031,84.5
2023-05-11T08:16:03,42.805,6.029,-0.005,0.024,-0.015,101.0,102.0,100.0,13.4,1505.2,324.6,-0.7,1.8,2471.313,13.29,0.024,348.2
2023-05-11T08:19:03,42.805,6.029,0.039,0.0,-0.023,101.0,102.0,101.0,13.4,1505.2,329.9,-0.8,1.8,2471.332,13.29,0.039,90.0
2023-05-11T08:22:03,42.805,6.029,-0.009,0.013,-0.035,101.0,102.0,100.0,13.4,1505.2,323.6,-0.8,1.8,2471.34,13.29,0.015,325.3
2023-05-11T08:25:03,42.805,6.029,0.029,0.01,0.004,102.0,102.0,100.0,13.4,1505.2,326.3,-0.8,1.8,2471.3,13.29,0.03,71.0
2023-05-11T08:28:03,42.805,6.029,0.009,-0.004,-0.06,101.0,102.0,100.0,13.4,1505.2,346.5,-0.8,1.8,2471.31,13.29,0.009,114.0
2023-05-11T08:31:03,42.805,6.029,0.03,-0.006,-0.038,102.0,102.0,100.0,13.4,1505.2,325.7,-0.8,1.8,2471.353,13.29,0.03,101.3
2023-05-11T08:34:03,42.805,6.029,0.032,0.016,-0.029,101.0,103.0,100.0,13.4,1505.2,332.0,-0.7,1.8,2471.307,13.29,0.035,63.4
2023-05-11T08:37:03,42.805,6.029,0.007,0.005,-0.009,102.0,102.0,100.0,13.3,1505.2,340.9,-0.8,1.8,2471.329,13.29,0.008,54.5
2023-05-11T08:40:03,42.805,6.029,0.02,0.022,0.001,103.0,100.0,101.0,13.4,1505.2,332.1,-0.8,1.8,2471.304,13.29,0.029,42.3
2023-05-11T08:43:03,42.805,6.029,-0.004,0.03,-0.065,102.0,101.0,102.0,13.3,1505.2,323.2,-0.7,1.8,2471.301,13.29,0.03,352.4
2023-05-11T08:46:03,42.805,6.029,-0.008,0.039,-0.031,102.0,101.0,100.0,13.4,1505.2,337.1,-0.8,1.8,2471.308,13.29,0.039,348.4
2023-05-11T08:49:03,42.805,6.029,0.04,-0.006,0.009,101.0,102.0,101.0,13.3,1505.2,336.8,-0.7,1.8,2471.28,13.29,0.04,98.5
2023-05-11T08:52:03,42.805,6.029,0.012,-0.001,-0.056,100.0,102.0,102.0,13.4,1505.2,324.4,-0.8,1.8,2471.317,13.29,0.012,94.8
2023-05-11T08:55:03,42.805,6.029,0.013,0.004,0.001,102.0,102.0,100.0,13.3,1505.2,343.7,-0.8,1.8,2471.329,13.29,0.013,72.9
2023-05-11T08:58:03,42.805,6.029,0.007,0.01,-0.018,102.0,103.0,102.0,13.3,1505.2,341.5,-0.7,1.9,2471.288,13.29,0.012,35.0
2023-05-11T09:04:03,42.805,6.029,0.01,0.018,-0.012,101.0,103.0,101.0,13.4,1505.2,327.5,-0.8,1.8,2471.36,13.28,0.02,29.1
2023-05-11T09:07:03,42.805,6.029,0.039,0.001,-0.029,102.0,100.0,100.0,13.3,1505.2,318.4,-0.7,1.8,2471.333,13.29,0.039,88.5
2023-05-11T09:10:03,42.805,6.029,0.042,0.002,-0.012,102.0,100.0,101.0,13.4,1505.2,342.5,-0.8,1.8,2471.374,13.29,0.042,87.3
2023-05-11T09:13:03,42.805,6.029,0.025,0.016,0.011,100.0,102.0,101.0,13.4,1505.2,329.3,-0.8,1.8,2471.355,13.29,0.029,57.4
2023-05-11T09:16:03,42.805,6.029,0.025,0.015,-0.008,102.0,101.0,100.0,13.4,1505.2,338.2,-0.8,1.8,2471.351,13.29,0.029,59.0
2023-05-11T09:19:03,42.805,6.029,-0.002,0.018,-0.019,102.0,102.0,101.0,13.3,1505.2,328.1,-0.7,1.8,2471.309,13.29,0.018,353.7
2023-05-11T09:22:03,42.805,6.029,0.032,0.017,-0.012,101.0,102.0,102.0,13.4,1505.2,335.9,-0.8,1.9,2471.306,13.29,0.036,62.0
2023-05-11T09:25:03,42.805,6.029,-0.002,0.015,-0.011,102.0,101.0,101.0,13.4,1505.2,332.9,-0.7,1.8,2471.367,13.29,0.015,352.4
2023-05-11T09:28:03,42.805,6.029,0.013,0.015,-0.03,102.0,102.0,101.0,13.3,1505.2,330.3,-0.7,1.8,2471.285,13.29,0.019,40.9
2023-05-11T09:31:03,42.805,6.029,0.001,0.011,-0.031,102.0,102.0,100.0,13.4,1505.2,321.0,-0.8,1.8,2471.335,13.29,0.011,5.2
2023-05-11T09:34:03,42.805,6.029,0.015,-0.017,-0.04,101.0,102.0,100.0,13.4,1505.2,333.4,-0.8,1.8,2471.314,13.29,0.022,138.6
2023-05-11T09:37:03,42.805,6.029,0.013,0.026,-0.023,103.0,100.0,101.0,13.4,1505.2,336.6,-0.8,1.8,2471.333,13.29,0.029,26.6
2023-05-11T09:40:03,42.805,6.029,0.012,0.028,0.013,103.0,102.0,100.0,13.4,1505.2,322.7,-0.7,1.8,2471.319,13.29,0.03,23.2
2023-05-11T09:43:03,42.805,6.029,0.0,0.015,-0.015,100.0,102.0,101.0,13.4,1505.2,317.6,-0.7,1.8,2471.311,13.29,0.015,0.0
2023-05-11T09:46:03,42.805,6.029,0.04,0.005,0.008,102.0,102.0,100.0,13.4,1505.2,336.5,-0.7,1.8,2471.307,13.29,0.04,82.9
2023-05-11T09:49:03,42.805,6.029,-0.001,0.009,-0.041,101.0,102.0,101.0,13.4,1505.2,319.9,-0.8,1.8,2471.301,13.29,0.009,353.7
2023-05-11T09:52:03,42.805,6.029,0.012,0.025,0.012,100.0,102.0,101.0,13.4,1505.2,333.4,-0.8,1.8,2471.337,13.29,0.027,25.6
2023-05-11T09:55:03,42.805,6.029,0.029,0.005,-0.01,100.0,102.0,101.0,13.3,1505.2,320.1,-0.7,1.8,2471.308,13.29,0.029,80.2
2023-05-11T09:58:03,42.805,6.029,0.003,0.011,-0.016,101.0,101.0,101.0,13.4,1505.2,340.1,-0.8,1.8,2471.31,13.29,0.011,15.3
2023-05-11T10:04:03,42.805,6.029,0.02,0.008,0.001,101.0,102.0,101.0,13.4,1505.2,344.4,-0.8,1.8,2471.377,13.28,0.021,68.2